This demonstration page uses our WeatherBlox Daily Observations layout. Learn more.

Hourly Observations for January 27, 2019

Temp ( °F °C ) Dew Point ( °F °C ) Humidity (%) Winds ( mph kmh ) Pressure ( in mb ) Visibility ( mi km ) Precip ( " mm )
12:15 am 00:15 Mostly Cloudy 31 -0.5 29 -1.5 93 93 W 6 9 30.19 1022 10 16.0934 0 0
12:35 am 00:35 Cloudy 31 -0.5 30 -1.3 94 94 W 9 15 30.19 1022 10 16.0934 0 0
12:55 am 00:55 Cloudy 32 0 31 -0.7 95 95 W 7 11 30.17 1022 10 16.0934 0 0
1:15 am 01:15 Cloudy 32 0 31 -0.7 95 95 W 6 9 30.17 1022 10 16.0934 0 0
1:35 am 01:35 Cloudy 33 0.3 31 -0.6 94 94 W 7 11 30.14 1021 10 16.0934 0 0
1:55 am 01:55 Cloudy 33 0.6 31 -0.5 92 92 W 7 11 30.14 1021 10 16.0934 0 0
2:15 am 02:15 Cloudy 33 0.7 31 -0.5 92 92 SW 5 7 30.13 1020 10 16.0934 0 0
2:35 am 02:35 Cloudy 33 0.6 31 -0.3 94 94 SW 3 6 30.13 1020 10 16.0934 0 0
2:55 am 02:55 Cloudy 33 0.3 31 -0.5 94 94 SW 7 11 30.13 1020 10 16.0934 0 0
3:15 am 03:15 Cloudy 32 0.1 31 -0.5 96 96 SW 7 11 30.13 1020 10 16.0934 0 0
3:55 am 03:55 Cloudy 34 0.9 32 -0.2 92 92 WSW 8 13 30.1 1019 10 16.0934 0 0
4:15 am 04:15 Cloudy 34 1 31 -0.3 91 91 SW 8 13 30.09 1019 10 16.0934 0 0
4:35 am 04:35 Cloudy 33 0.5 31 -0.4 94 94 SW 9 15 30.08 1019 10 16.0934 0 0
4:55 am 04:55 Cloudy 33 0.3 31 -0.4 95 95 SW 8 13 30.07 1018 10 16.0934 0 0
5:15 am 05:15 Cloudy 33 0.4 31 -0.3 95 95 SW 7 11 30.07 1018 10 16.0934 0 0
5:35 am 05:35 Cloudy 33 0.5 32 -0.1 96 96 SW 7 11 30.06 1018 10 16.0934 0 0
5:55 am 05:55 Cloudy 34 1 32 0 93 93 SW 10 17 30.05 1017 10 16.0934 0 0
6:15 am 06:15 Cloudy 34 1.1 32 0 92 92 SW 9 15 30.03 1017 10 16.0934 0 0
6:35 am 06:35 Cloudy 34 1.1 32 0 92 92 SW 9 15 30.02 1017 10 16.0934 0 0
6:55 am 06:55 Cloudy 33 0.8 32 -0.1 94 94 SW 6 9 30.02 1016 10 16.0934 0 0
7:15 am 07:15 Cloudy 34 1.3 32 0 91 91 SW 7 11 30.01 1016 10 16.0934 0 0
7:35 am 07:35 Cloudy 34 1.3 32 -0.1 91 91 SW 8 13 30.01 1016 10 16.0934 0 0
7:55 am 07:55 Cloudy 33 0.8 31 -0.3 92 92 WSW 6 9 30.01 1016 10 16.0934 0 0
8:15 am 08:15 Cloudy 34 1.1 32 -0.2 91 91 WSW 7 11 30 1016 10 16.0934 0 0
8:35 am 08:35 Cloudy 35 1.5 31 -0.3 88 88 WSW 7 11 30 1016 10 16.0934 0 0
8:55 am 08:55 Cloudy 35 1.8 31 -0.5 85 85 WSW 9 15 29.99 1015 10 16.0934 0 0
9:15 am 09:15 Cloudy 36 2.3 31 -0.5 82 82 W 8 13 29.97 1015 10 16.0934 0 0
9:35 am 09:35 Cloudy 37 3 31 -0.4 79 79 WSW 9 15 29.97 1015 10 16.0934 0 0
9:55 am 09:55 Partly Cloudy 38 3.5 32 -0.1 78 78 W 9 15 29.95 1014 10 16.0934 0 0
10:15 am 10:15 Sunny 40 4.4 32 0 73 73 W 10 17 29.94 1014 10 16.0934 0 0
10:35 am 10:35 Partly Cloudy 42 5.3 32 -0.1 68 68 WSW 10 17 29.93 1013 10 16.0934 0 0
10:55 am 10:55 Partly Cloudy 44 6.5 33 0.5 66 66 W 13 20 29.9 1013 10 16.0934 0 0
11:15 am 11:15 Sunny 44 6.5 33 0.5 66 66 WSW 9 15 29.89 1012 10 16.0934 0 0
11:35 am 11:35 Sunny 44 6.5 33 0.6 66 66 WSW 9 15 29.89 1012 10 16.0934 0 0
11:55 am 11:55 Sunny 45 7 33 0.7 65 65 WSW 10 17 29.87 1011 10 16.0934 0 0
12:15 pm 12:15 Sunny 45 7.2 34 0.9 65 65 WSW 8 13 29.86 1011 10 16.0934 0 0
12:35 pm 12:35 Sunny 45 7.2 34 0.9 65 65 WSW 8 13 29.83 1010 10 16.0934 0 0
12:55 pm 12:55 Partly Cloudy 48 8.8 34 1.3 60 60 WSW 8 13 29.79 1009 10 16.0934 0 0
1:15 pm 13:15 Mostly Cloudy 47 8.5 35 1.5 62 62 WSW 10 17 29.79 1009 10 16.0934 0 0
1:35 pm 13:35 Cloudy 48 8.7 35 1.6 61 61 WSW 10 17 29.77 1008 10 16.0934 0 0
1:55 pm 13:55 Mostly Cloudy 49 9.4 35 1.9 60 60 SW 9 15 29.74 1007 10 16.0934 0 0
2:15 pm 14:15 Sunny 50 10 35 1.9 57 57 SW 13 20 29.72 1007 10 16.0934 0 0
2:35 pm 14:35 Sunny 50 10.1 35 1.4 55 55 SW 15 24 29.69 1005 10 16.0934 0 0
2:55 pm 14:55 Sunny 51 10.8 35 1.4 53 53 WSW 13 20 29.69 1005 10 16.0934 0 0
3:15 pm 15:15 Partly Cloudy 51 10.8 35 1.8 54 54 SW 15 24 29.67 1005 10 16.0934 0 0
3:35 pm 15:35 Sunny 51 10.5 36 2.4 58 58 SW 14 22 29.67 1005 10 16.0934 0 0
3:55 pm 15:55 Partly Cloudy 50 10 36 2.1 58 58 SW 15 24 29.64 1004 10 16.0934 0 0
4:15 pm 16:15 Partly Cloudy 50 10 36 2.1 58 58 SW 10 17 29.62 1003 10 16.0934 0 0
4:35 pm 16:35 Sunny 49 9.5 36 2 60 60 SW 12 19 29.62 1003 10 16.0934 0 0
4:55 pm 16:55 Sunny 49 9.5 36 2.2 61 61 SSW 10 17 29.62 1003 10 16.0934 0 0
5:15 pm 17:15 Sunny 48 9 37 2.5 64 64 SW 8 13 29.61 1003 10 16.0934 0 0
5:35 pm 17:35 Sunny 47 8.3 37 2.7 68 68 SW 9 15 29.6 1002 10 16.0934 0 0
6:15 pm 18:15 Partly Cloudy 46 7.5 37 2.5 71 71 SW 10 17 29.58 1002 10 16.0934 0 0
6:35 pm 18:35 Cloudy 46 7.5 36 2.3 70 70 SW 13 20 29.57 1002 10 16.0934 0 0
6:55 pm 18:55 Cloudy 45 7.3 36 2.1 70 70 SW 13 20 29.58 1002 10 16.0934 0 0
7:15 pm 19:15 Mostly Cloudy 46 8 36 2.2 67 67 SW 14 22 29.57 1001 10 16.0934 0 0
7:35 pm 19:35 Partly Cloudy 47 8.5 37 2.5 66 66 WSW 13 20 29.58 1002 10 16.0934 0 0
7:55 pm 19:55 Cloudy 47 8.2 37 2.5 68 68 W 13 20 29.59 1002 10 16.0934 0 0
8:15 pm 20:15 Cloudy 45 7.1 36 2.4 72 72 W 9 15 29.6 1002 10 16.0934 0 0
8:35 pm 20:35 Cloudy 48 9.1 34 0.9 57 57 NW 12 19 29.58 1002 10 16.0934 0 0
8:55 pm 20:55 Cloudy 49 9.4 34 0.9 56 56 NW 7 11 29.58 1002 10 16.0934 0 0
9:15 pm 21:15 Cloudy 50 10.2 33 0.6 52 52 WNW 14 22 29.58 1002 10 16.0934 0 0
9:35 pm 21:35 Mostly Cloudy 49 9.3 34 0.9 56 56 NW 15 24 29.6 1002 10 16.0934 0 0
9:55 pm 21:55 Cloudy 48 8.8 34 1 58 58 NW 16 26 29.63 1003 10 16.0934 0 0
10:15 pm 22:15 Cloudy 47 8.4 34 1.2 61 61 NNW 23 37 29.65 1004 10 16.0934 0 0
10:35 pm 22:35 Cloudy 46 7.8 35 1.6 65 65 NNW 15 24 29.68 1005 10 16.0934 0 0
10:55 pm 22:55 Cloudy 46 7.5 35 1.5 66 66 NNW 26 43 29.69 1006 10 16.0934 0 0
11:15 pm 23:15 Cloudy 43 6.2 34 1.2 71 71 N 13 20 29.74 1007 10 16.0934 0 0
11:35 pm 23:35 Cloudy 42 5.5 34 1 73 73 NNW 16 26 29.76 1008 10 16.0934 0 0
11:55 pm 23:55 Cloudy 41 5.1 32 0.1 70 70 NNW 20 31 29.77 1008 10 16.0934 0 0

Powered by AerisWeather